Time,TemperatureF,DewpointF,PressureIn,WindDirection,WindDirectionDegrees,WindSpeedMPH,WindSpeedGustMPH,Humidity,HourlyPrecipIn,Conditions,Clouds,dailyrainin,SoftwareType,DateUTC
2013-12-04 00:02:00,32.5,30.9,22.23,South,180,5.0,11.0,94,0.00,,,0.00,meteohub,2013-12-04 06:02:00,
2013-12-04 00:07:00,32.5,30.9,22.22,South,180,5.0,8.0,94,0.00,,,0.00,meteohub,2013-12-04 06:07:00,
2013-12-04 00:12:00,32.5,30.9,22.22,East,90,5.0,7.0,94,0.00,,,0.00,meteohub,2013-12-04 06:12:00,
2013-12-04 00:16:00,32.5,30.9,22.22,South,180,4.0,5.0,94,0.00,,,0.00,meteohub,2013-12-04 06:16:00,
2013-12-04 00:22:00,32.5,30.9,22.22,South,180,4.0,5.0,94,0.00,,,0.00,meteohub,2013-12-04 06:22:00,
2013-12-04 00:27:00,32.5,30.9,22.22,SSE,158,4.0,6.0,94,0.00,,,0.00,meteohub,2013-12-04 06:27:00,
2013-12-04 00:31:00,32.5,30.9,22.22,SE,135,7.0,7.0,94,0.00,,,0.00,meteohub,2013-12-04 06:31:00,
2013-12-04 00:36:00,32.5,30.9,22.23,South,180,4.0,8.0,94,0.00,,,0.00,meteohub,2013-12-04 06:36:00,
2013-12-04 00:41:00,32.5,30.9,22.23,South,180,4.0,8.0,94,0.00,,,0.00,meteohub,2013-12-04 06:41:00,
2013-12-04 00:47:00,32.5,30.9,22.24,SE,135,4.0,8.0,94,0.00,,,0.00,meteohub,2013-12-04 06:47:00,
2013-12-04 00:52:00,32.5,30.9,22.23,SE,135,6.0,6.0,94,0.00,,,0.00,meteohub,2013-12-04 06:52:00,
2013-12-04 00:57:00,32.5,30.9,22.23,South,180,4.0,8.0,94,0.00,,,0.00,meteohub,2013-12-04 06:57:00,
2013-12-04 01:02:00,32.5,30.9,22.22,SE,135,5.0,9.0,94,0.00,,,0.00,meteohub,2013-12-04 07:02:00,
2013-12-04 01:07:00,32.5,30.9,22.21,SE,135,3.0,9.0,94,0.00,,,0.00,meteohub,2013-12-04 07:07:00,
2013-12-04 01:12:00,32.5,30.9,22.21,SE,135,5.0,9.0,94,0.00,,,0.00,meteohub,2013-12-04 07:12:00,
2013-12-04 01:17:00,32.7,31.1,22.22,SE,135,3.0,8.0,94,0.00,,,0.00,meteohub,2013-12-04 07:17:00,
2013-12-04 01:22:00,32.5,30.9,22.22,SE,135,6.0,8.0,94,0.00,,,0.00,meteohub,2013-12-04 07:22:00,
2013-12-04 01:27:00,32.5,30.9,22.23,SE,135,4.0,8.0,94,0.00,,,0.00,meteohub,2013-12-04 07:27:00,
2013-12-04 01:32:00,32.5,30.9,22.23,SE,135,7.0,7.0,94,0.00,,,0.00,meteohub,2013-12-04 07:32:00,
2013-12-04 01:37:00,32.5,30.9,22.23,SE,135,7.0,7.0,94,0.00,,,0.00,meteohub,2013-12-04 07:37:00,
2013-12-04 01:42:00,32.5,30.9,22.23,SE,135,5.0,7.0,94,0.00,,,0.00,meteohub,2013-12-04 07:42:00,
2013-12-04 01:47:00,32.5,30.9,22.23,SE,135,5.0,8.0,94,0.00,,,0.00,meteohub,2013-12-04 07:47:00,
2013-12-04 01:52:00,32.5,30.9,22.23,SE,135,5.0,8.0,94,0.00,,,0.00,meteohub,2013-12-04 07:52:00,
2013-12-04 01:56:00,32.7,31.1,22.22,SE,135,8.0,8.0,94,0.00,,,0.00,meteohub,2013-12-04 07:56:00,
2013-12-04 02:02:00,32.7,31.1,22.22,SE,135,8.0,8.0,94,0.00,,,0.00,meteohub,2013-12-04 08:02:00,
2013-12-04 02:07:00,32.7,31.1,22.22,SE,135,8.0,8.0,94,0.00,,,0.00,meteohub,2013-12-04 08:07:00,
2013-12-04 02:12:00,32.7,31.1,22.22,SE,135,3.0,9.0,94,0.00,,,0.00,meteohub,2013-12-04 08:12:00,
2013-12-04 02:17:00,32.7,31.1,22.22,South,180,8.0,9.0,94,0.00,,,0.00,meteohub,2013-12-04 08:17:00,
2013-12-04 02:22:00,32.7,31.1,22.22,South,180,3.0,9.0,94,0.00,,,0.00,meteohub,2013-12-04 08:22:00,
2013-12-04 02:27:00,32.7,31.1,22.22,SE,135,3.0,8.0,94,0.00,,,0.00,meteohub,2013-12-04 08:27:00,
2013-12-04 02:32:00,32.7,31.1,22.23,East,90,4.0,8.0,94,0.00,,,0.00,meteohub,2013-12-04 08:32:00,
2013-12-04 02:37:00,32.7,31.1,22.23,SE,135,7.0,7.0,94,0.00,,,0.00,meteohub,2013-12-04 08:37:00,
2013-12-04 02:42:00,32.7,31.1,22.24,South,180,3.0,7.0,94,0.00,,,0.00,meteohub,2013-12-04 08:42:00,
2013-12-04 02:47:00,32.7,31.1,22.23,SE,135,5.0,7.0,94,0.00,,,0.00,meteohub,2013-12-04 08:47:00,
2013-12-04 02:52:00,32.7,31.1,22.23,South,180,5.0,7.0,94,0.00,,,0.00,meteohub,2013-12-04 08:52:00,
2013-12-04 02:57:00,32.7,31.1,22.25,SE,135,5.0,5.0,94,0.00,,,0.00,meteohub,2013-12-04 08:57:00,
2013-12-04 03:02:00,32.7,31.1,22.24,South,180,4.0,11.0,94,0.00,,,0.00,meteohub,2013-12-04 09:02:00,
2013-12-04 03:07:00,32.7,31.1,22.24,SE,135,4.0,11.0,94,0.00,,,0.00,meteohub,2013-12-04 09:07:00,
2013-12-04 03:12:00,32.7,31.1,22.23,SE,135,2.0,11.0,94,0.00,,,0.00,meteohub,2013-12-04 09:12:00,
2013-12-04 03:17:00,32.7,31.1,22.25,South,180,4.0,8.0,94,0.00,,,0.00,meteohub,2013-12-04 09:17:00,
2013-12-04 03:22:00,32.7,31.1,22.25,SE,135,7.0,8.0,94,0.00,,,0.00,meteohub,2013-12-04 09:22:00,
2013-12-04 03:27:00,32.7,31.1,22.25,South,180,3.0,9.0,94,0.00,,,0.00,meteohub,2013-12-04 09:27:00,
2013-12-04 03:31:00,32.7,31.1,22.25,East,90,4.0,9.0,94,0.00,,,0.00,meteohub,2013-12-04 09:31:00,
2013-12-04 03:36:00,32.7,31.1,22.25,SE,135,4.0,9.0,94,0.00,,,0.00,meteohub,2013-12-04 09:36:00,
2013-12-04 03:41:00,32.7,31.1,22.25,SE,135,7.0,7.0,94,0.00,,,0.00,meteohub,2013-12-04 09:41:00,
2013-12-04 03:47:00,32.7,31.1,22.26,SE,135,2.0,7.0,94,0.00,,,0.00,meteohub,2013-12-04 09:47:00,
2013-12-04 03:52:00,32.7,31.1,22.26,SE,135,1.0,7.0,94,0.00,,,0.00,meteohub,2013-12-04 09:52:00,
2013-12-04 03:57:00,32.7,31.1,22.25,SE,135,3.0,7.0,94,0.00,,,0.00,meteohub,2013-12-04 09:57:00,
2013-12-04 04:02:00,32.7,31.1,22.27,SE,135,6.0,7.0,94,0.00,,,0.00,meteohub,2013-12-04 10:02:00,
2013-12-04 04:07:00,32.7,31.1,22.27,SE,135,6.0,7.0,94,0.00,,,0.00,meteohub,2013-12-04 10:07:00,
2013-12-04 04:12:00,32.5,30.9,22.26,SW,225,7.0,7.0,94,0.00,,,0.00,meteohub,2013-12-04 10:12:00,
2013-12-04 04:16:00,32.5,30.9,22.26,SE,135,5.0,7.0,94,0.00,,,0.00,meteohub,2013-12-04 10:16:00,
2013-12-04 04:22:00,32.5,30.9,22.27,South,180,7.0,7.0,94,0.00,,,0.00,meteohub,2013-12-04 10:22:00,
2013-12-04 04:27:00,32.5,30.9,22.27,South,180,5.0,8.0,94,0.00,,,0.00,meteohub,2013-12-04 10:27:00,
2013-12-04 04:32:00,32.5,30.9,22.27,SE,135,4.0,8.0,94,0.00,,,0.00,meteohub,2013-12-04 10:32:00,
2013-12-04 04:37:00,32.4,30.7,22.27,South,180,4.0,8.0,94,0.00,,,0.00,meteohub,2013-12-04 10:37:00,
2013-12-04 04:42:00,32.4,30.7,22.26,SE,135,6.0,8.0,94,0.00,,,0.00,meteohub,2013-12-04 10:42:00,
2013-12-04 04:47:00,32.4,30.7,22.26,SSE,158,8.0,12.0,94,0.01,,,0.01,meteohub,2013-12-04 10:47:00,
2013-12-04 04:52:00,32.4,30.7,22.26,SE,135,5.0,12.0,94,0.01,,,0.01,meteohub,2013-12-04 10:52:00,
2013-12-04 04:57:00,32.4,30.7,22.27,SE,135,5.0,8.0,94,0.01,,,0.01,meteohub,2013-12-04 10:57:00,
2013-12-04 05:02:00,32.4,30.7,22.27,SE,135,4.0,8.0,94,0.01,,,0.01,meteohub,2013-12-04 11:02:00,
2013-12-04 05:07:00,32.4,30.7,22.27,SE,135,4.0,8.0,94,0.01,,,0.01,meteohub,2013-12-04 11:07:00,
2013-12-04 05:12:00,32.4,30.7,22.27,SE,135,6.0,10.0,94,0.01,,,0.01,meteohub,2013-12-04 11:12:00,
2013-12-04 05:17:00,32.4,30.7,22.28,SE,135,7.0,10.0,94,0.01,,,0.01,meteohub,2013-12-04 11:17:00,
2013-12-04 05:22:00,32.4,30.7,22.27,South,180,6.0,10.0,94,0.01,,,0.01,meteohub,2013-12-04 11:22:00,
2013-12-04 05:27:00,32.4,30.7,22.27,SE,135,7.0,7.0,94,0.01,,,0.01,meteohub,2013-12-04 11:27:00,
2013-12-04 05:32:00,32.4,30.7,22.27,SE,135,4.0,8.0,94,0.01,,,0.01,meteohub,2013-12-04 11:32:00,
2013-12-04 05:37:00,32.4,30.7,22.27,SE,135,7.0,8.0,94,0.01,,,0.01,meteohub,2013-12-04 11:37:00,
2013-12-04 05:42:00,32.4,30.7,22.27,SE,135,5.0,8.0,94,0.00,,,0.01,meteohub,2013-12-04 11:42:00,
2013-12-04 05:47:00,32.4,30.7,22.26,South,180,3.0,7.0,94,0.00,,,0.01,meteohub,2013-12-04 11:47:00,
2013-12-04 05:52:00,32.4,30.7,22.27,SE,135,4.0,7.0,94,0.00,,,0.01,meteohub,2013-12-04 11:52:00,
2013-12-04 05:57:00,32.4,30.7,22.26,SE,135,2.0,6.0,94,0.00,,,0.01,meteohub,2013-12-04 11:57:00,
2013-12-04 06:02:00,32.4,30.7,22.26,South,180,3.0,6.0,94,0.00,,,0.01,meteohub,2013-12-04 12:02:00,
2013-12-04 06:07:00,32.4,30.7,22.26,South,180,3.0,6.0,94,0.00,,,0.01,meteohub,2013-12-04 12:07:00,
2013-12-04 06:12:00,32.4,30.7,22.27,SE,135,6.0,6.0,94,0.00,,,0.01,meteohub,2013-12-04 12:12:00,
2013-12-04 06:17:00,32.4,30.7,22.26,South,180,2.0,8.0,94,0.00,,,0.01,meteohub,2013-12-04 12:17:00,
2013-12-04 06:22:00,32.4,30.7,22.27,South,180,5.0,8.0,94,0.00,,,0.01,meteohub,2013-12-04 12:22:00,
2013-12-04 06:27:00,32.4,30.7,22.27,SE,135,4.0,8.0,94,0.00,,,0.01,meteohub,2013-12-04 12:27:00,
2013-12-04 06:32:00,32.4,30.7,22.27,SE,135,8.0,8.0,94,0.00,,,0.01,meteohub,2013-12-04 12:32:00,
2013-12-04 06:37:00,32.4,30.7,22.27,South,180,5.0,8.0,94,0.00,,,0.01,meteohub,2013-12-04 12:37:00,
2013-12-04 06:42:00,32.4,30.7,22.27,SE,135,7.0,8.0,94,0.00,,,0.01,meteohub,2013-12-04 12:42:00,
2013-12-04 06:47:00,32.4,30.7,22.27,SE,135,6.0,8.0,94,0.00,,,0.01,meteohub,2013-12-04 12:47:00,
2013-12-04 06:52:00,32.4,31.1,22.27,SE,135,4.0,8.0,95,0.00,,,0.01,meteohub,2013-12-04 12:52:00,
2013-12-04 06:57:00,32.4,31.1,22.27,South,180,4.0,8.0,95,0.00,,,0.01,meteohub,2013-12-04 12:57:00,
2013-12-04 07:02:00,32.4,31.1,22.27,SE,135,4.0,7.0,95,0.00,,,0.01,meteohub,2013-12-04 13:02:00,
2013-12-04 07:07:00,32.4,31.1,22.27,SE,135,4.0,9.0,95,0.00,,,0.01,meteohub,2013-12-04 13:07:00,
2013-12-04 07:12:00,32.4,31.1,22.27,NNW,338,4.0,9.0,95,0.00,,,0.01,meteohub,2013-12-04 13:12:00,
2013-12-04 07:17:00,32.4,31.1,22.27,East,90,4.0,9.0,95,0.00,,,0.01,meteohub,2013-12-04 13:17:00,
2013-12-04 07:22:00,32.4,31.1,22.27,South,180,4.0,5.0,95,0.00,,,0.01,meteohub,2013-12-04 13:22:00,
2013-12-04 07:27:00,32.4,31.1,22.27,SE,135,4.0,5.0,95,0.00,,,0.01,meteohub,2013-12-04 13:27:00,
2013-12-04 07:32:00,32.5,31.3,22.27,SE,135,4.0,4.0,95,0.00,,,0.01,meteohub,2013-12-04 13:32:00,
2013-12-04 07:37:00,32.5,31.3,22.27,South,180,2.0,5.0,95,0.00,,,0.01,meteohub,2013-12-04 13:37:00,
2013-12-04 07:42:00,32.5,31.3,22.27,South,180,4.0,7.0,95,0.00,,,0.01,meteohub,2013-12-04 13:42:00,
2013-12-04 07:47:00,32.5,31.3,22.27,South,180,2.0,7.0,95,0.00,,,0.01,meteohub,2013-12-04 13:47:00,
2013-12-04 07:52:00,32.5,31.3,22.28,South,180,5.0,8.0,95,0.00,,,0.01,meteohub,2013-12-04 13:52:00,
2013-12-04 07:56:00,32.7,31.5,22.28,SE,135,4.0,10.0,95,0.00,,,0.01,meteohub,2013-12-04 13:56:00,
2013-12-04 08:01:00,32.7,31.5,22.29,SE,135,5.0,10.0,95,0.00,,,0.01,meteohub,2013-12-04 14:01:00,
2013-12-04 08:07:00,32.7,31.5,22.28,SE,135,5.0,10.0,95,0.00,,,0.01,meteohub,2013-12-04 14:07:00,
2013-12-04 08:12:00,32.7,31.5,22.28,SE,135,5.0,5.0,95,0.00,,,0.01,meteohub,2013-12-04 14:12:00,
2013-12-04 08:17:00,32.9,31.6,22.29,South,180,3.0,5.0,95,0.00,,,0.01,meteohub,2013-12-04 14:17:00,
2013-12-04 08:22:00,32.9,31.6,22.29,SE,135,6.0,6.0,95,0.00,,,0.01,meteohub,2013-12-04 14:22:00,
2013-12-04 08:27:00,32.9,31.6,22.29,South,180,4.0,6.0,95,0.00,,,0.01,meteohub,2013-12-04 14:27:00,
2013-12-04 08:32:00,32.9,31.6,22.30,West,270,4.0,6.0,95,0.00,,,0.01,meteohub,2013-12-04 14:32:00,
2013-12-04 08:37:00,33.1,31.8,22.30,South,180,7.0,8.0,95,0.00,,,0.01,meteohub,2013-12-04 14:37:00,
2013-12-04 08:42:00,33.1,31.8,22.30,South,180,6.0,8.0,95,0.00,,,0.01,meteohub,2013-12-04 14:42:00,
2013-12-04 08:47:00,33.1,31.8,22.30,SE,135,3.0,8.0,95,0.00,,,0.01,meteohub,2013-12-04 14:47:00,
2013-12-04 08:52:00,33.1,31.8,22.30,South,180,2.0,8.0,95,0.00,,,0.01,meteohub,2013-12-04 14:52:00,
2013-12-04 08:57:00,33.1,31.8,22.30,SE,135,2.0,6.0,95,0.00,,,0.01,meteohub,2013-12-04 14:57:00,
2013-12-04 09:02:00,33.3,32.0,22.30,East,90,2.0,4.0,95,0.00,,,0.01,meteohub,2013-12-04 15:02:00,
2013-12-04 09:07:00,33.3,32.0,22.30,East,90,5.0,5.0,95,0.00,,,0.01,meteohub,2013-12-04 15:07:00,
2013-12-04 09:12:00,33.4,32.2,22.30,SE,135,3.0,5.0,95,0.00,,,0.01,meteohub,2013-12-04 15:12:00,
2013-12-04 09:17:00,33.4,32.2,22.30,South,180,4.0,5.0,95,0.00,,,0.01,meteohub,2013-12-04 15:17:00,
2013-12-04 09:22:00,33.4,32.2,22.30,South,180,2.0,5.0,95,0.00,,,0.01,meteohub,2013-12-04 15:22:00,
2013-12-04 09:27:00,33.4,32.2,22.30,SE,135,4.0,4.0,95,0.00,,,0.01,meteohub,2013-12-04 15:27:00,
2013-12-04 09:32:00,33.4,32.2,22.30,SE,135,2.0,4.0,95,0.00,,,0.01,meteohub,2013-12-04 15:32:00,
2013-12-04 09:37:00,33.4,32.2,22.30,SE,135,5.0,5.0,95,0.00,,,0.01,meteohub,2013-12-04 15:37:00,
2013-12-04 09:42:00,33.4,32.2,22.30,SE,135,2.0,5.0,95,0.00,,,0.01,meteohub,2013-12-04 15:42:00,
2013-12-04 09:47:00,33.4,32.2,22.30,SE,135,4.0,5.0,95,0.00,,,0.01,meteohub,2013-12-04 15:47:00,
2013-12-04 09:52:00,33.4,32.2,22.30,East,90,4.0,5.0,95,0.00,,,0.01,meteohub,2013-12-04 15:52:00,
2013-12-04 09:57:00,33.4,32.2,22.30,South,180,6.0,6.0,95,0.00,,,0.01,meteohub,2013-12-04 15:57:00,
2013-12-04 10:02:00,33.4,32.2,22.30,SE,135,4.0,6.0,95,0.00,,,0.01,meteohub,2013-12-04 16:02:00,
2013-12-04 10:07:00,33.6,32.4,22.30,North,0,0.0,6.0,95,0.00,,,0.01,meteohub,2013-12-04 16:07:00,
2013-12-04 10:12:00,33.6,32.4,22.30,West,270,2.0,6.0,95,0.00,,,0.01,meteohub,2013-12-04 16:12:00,
2013-12-04 10:17:00,33.8,32.2,22.30,South,180,1.0,4.0,94,0.00,,,0.01,meteohub,2013-12-04 16:17:00,
2013-12-04 10:22:00,33.8,32.2,22.31,SE,135,6.0,6.0,94,0.00,,,0.01,meteohub,2013-12-04 16:22:00,
2013-12-04 10:27:00,33.8,32.2,22.31,South,180,4.0,7.0,94,0.00,,,0.01,meteohub,2013-12-04 16:27:00,
2013-12-04 10:32:00,33.8,32.2,22.31,SE,135,2.0,7.0,94,0.00,,,0.01,meteohub,2013-12-04 16:32:00,
2013-12-04 10:37:00,34.0,32.4,22.32,SE,135,1.0,7.0,94,0.00,,,0.01,meteohub,2013-12-04 16:37:00,
2013-12-04 10:42:00,34.0,32.4,22.32,SE,135,1.0,5.0,94,0.00,,,0.01,meteohub,2013-12-04 16:42:00,
2013-12-04 10:47:00,34.0,32.4,22.32,SE,135,4.0,4.0,94,0.00,,,0.01,meteohub,2013-12-04 16:47:00,
2013-12-04 10:52:00,34.0,32.4,22.32,SE,135,1.0,5.0,94,0.00,,,0.01,meteohub,2013-12-04 16:52:00,
2013-12-04 10:57:00,34.0,32.4,22.32,SE,135,5.0,5.0,94,0.00,,,0.01,meteohub,2013-12-04 16:57:00,
2013-12-04 11:02:00,34.0,32.4,22.32,SE,135,2.0,5.0,94,0.00,,,0.01,meteohub,2013-12-04 17:02:00,
2013-12-04 11:07:00,34.0,32.4,22.33,SE,135,4.0,5.0,94,0.00,,,0.01,meteohub,2013-12-04 17:07:00,
2013-12-04 11:12:00,34.0,32.4,22.34,East,90,4.0,5.0,94,0.00,,,0.01,meteohub,2013-12-04 17:12:00,
2013-12-04 11:17:00,34.2,32.9,22.34,SE,135,2.0,4.0,95,0.00,,,0.01,meteohub,2013-12-04 17:17:00,
2013-12-04 11:22:00,34.2,32.9,22.34,South,180,3.0,4.0,95,0.00,,,0.01,meteohub,2013-12-04 17:22:00,
2013-12-04 11:27:00,34.2,32.9,22.35,SE,135,2.0,4.0,95,0.00,,,0.01,meteohub,2013-12-04 17:27:00,
2013-12-04 11:32:00,34.3,33.1,22.35,South,180,2.0,4.0,95,0.00,,,0.01,meteohub,2013-12-04 17:32:00,
2013-12-04 11:37:00,34.3,33.1,22.36,SE,135,5.0,5.0,95,0.00,,,0.01,meteohub,2013-12-04 17:37:00,
2013-12-04 11:42:00,34.3,33.1,22.37,South,180,4.0,4.0,95,0.00,,,0.01,meteohub,2013-12-04 17:42:00,
2013-12-04 11:47:00,34.3,33.1,22.37,SE,135,7.0,7.0,95,0.00,,,0.01,meteohub,2013-12-04 17:47:00,
2013-12-04 11:52:00,34.5,33.3,22.38,South,180,2.0,7.0,95,0.00,,,0.01,meteohub,2013-12-04 17:52:00,
2013-12-04 11:57:00,34.5,33.3,22.38,East,90,2.0,7.0,95,0.00,,,0.01,meteohub,2013-12-04 17:57:00,
2013-12-04 12:02:00,34.5,33.3,22.39,SE,135,4.0,7.0,95,0.00,,,0.01,meteohub,2013-12-04 18:02:00,
2013-12-04 12:07:00,34.5,33.3,22.40,South,180,4.0,5.0,95,0.00,,,0.01,meteohub,2013-12-04 18:07:00,
2013-12-04 12:12:00,34.5,33.3,22.40,SE,135,1.0,5.0,95,0.00,,,0.01,meteohub,2013-12-04 18:12:00,
2013-12-04 12:17:00,34.5,33.3,22.41,SE,135,3.0,5.0,95,0.00,,,0.01,meteohub,2013-12-04 18:17:00,
2013-12-04 12:22:00,34.7,33.4,22.41,South,180,4.0,6.0,95,0.00,,,0.01,meteohub,2013-12-04 18:22:00,
2013-12-04 12:27:00,34.7,33.4,22.42,South,180,1.0,6.0,95,0.00,,,0.01,meteohub,2013-12-04 18:27:00,
2013-12-04 12:32:00,34.9,33.6,22.42,SE,135,3.0,6.0,95,0.00,,,0.01,meteohub,2013-12-04 18:32:00,
2013-12-04 12:37:00,34.9,33.6,22.42,SE,135,3.0,5.0,95,0.00,,,0.01,meteohub,2013-12-04 18:37:00,
2013-12-04 12:42:00,34.9,33.6,22.42,SE,135,2.0,4.0,95,0.00,,,0.01,meteohub,2013-12-04 18:42:00,
2013-12-04 12:47:00,34.9,33.6,22.43,SE,135,4.0,5.0,95,0.00,,,0.01,meteohub,2013-12-04 18:47:00,
2013-12-04 12:52:00,34.9,33.6,22.43,SE,135,2.0,5.0,95,0.00,,,0.01,meteohub,2013-12-04 18:52:00,
2013-12-04 12:58:00,35.1,33.8,22.44,South,180,0.0,4.0,95,0.00,,,0.01,meteohub,2013-12-04 18:58:00,
2013-12-04 13:03:00,35.1,33.8,22.45,SW,225,1.0,4.0,95,0.00,,,0.01,meteohub,2013-12-04 19:03:00,
2013-12-04 13:08:00,35.1,33.8,22.44,SE,135,3.0,4.0,95,0.00,,,0.01,meteohub,2013-12-04 19:08:00,
2013-12-04 13:13:00,35.2,34.0,22.44,SE,135,0.0,4.0,95,0.00,,,0.01,meteohub,2013-12-04 19:13:00,
2013-12-04 13:18:00,35.2,34.0,22.45,SE,135,0.0,4.0,95,0.00,,,0.01,meteohub,2013-12-04 19:18:00,
2013-12-04 13:23:00,35.4,34.2,22.45,SE,135,2.0,4.0,95,0.00,,,0.01,meteohub,2013-12-04 19:23:00,
2013-12-04 13:28:00,35.4,34.2,22.45,South,180,2.0,3.0,95,0.00,,,0.01,meteohub,2013-12-04 19:28:00,
2013-12-04 13:33:00,35.4,34.2,22.45,SE,135,1.0,2.0,95,0.00,,,0.01,meteohub,2013-12-04 19:33:00,
2013-12-04 13:38:00,35.4,34.2,22.46,SE,135,2.0,2.0,95,0.00,,,0.01,meteohub,2013-12-04 19:38:00,
2013-12-04 13:42:00,35.4,34.3,22.47,SE,135,2.0,3.0,96,0.00,,,0.01,meteohub,2013-12-04 19:42:00,
2013-12-04 13:48:00,35.6,34.3,22.47,South,180,1.0,3.0,95,0.00,,,0.01,meteohub,2013-12-04 19:48:00,
2013-12-04 13:53:00,35.6,34.3,22.47,SE,135,4.0,4.0,95,0.00,,,0.01,meteohub,2013-12-04 19:53:00,
2013-12-04 13:58:00,35.6,34.3,22.48,South,180,2.0,4.0,95,0.00,,,0.01,meteohub,2013-12-04 19:58:00,
2013-12-04 14:03:00,35.6,34.3,22.48,SE,135,2.0,4.0,95,0.00,,,0.01,meteohub,2013-12-04 20:03:00,
2013-12-04 14:08:00,35.6,34.3,22.48,South,180,1.0,4.0,95,0.00,,,0.01,meteohub,2013-12-04 20:08:00,
2013-12-04 14:13:00,35.6,34.3,22.48,South,180,2.0,2.0,95,0.00,,,0.01,meteohub,2013-12-04 20:13:00,
2013-12-04 14:18:00,35.6,34.3,22.48,SE,135,1.0,2.0,95,0.00,,,0.01,meteohub,2013-12-04 20:18:00,
2013-12-04 14:23:00,35.8,34.5,22.49,SE,135,3.0,3.0,95,0.00,,,0.01,meteohub,2013-12-04 20:23:00,
2013-12-04 14:28:00,35.8,34.5,22.49,South,180,0.0,3.0,95,0.00,,,0.01,meteohub,2013-12-04 20:28:00,
2013-12-04 14:33:00,35.8,34.5,22.50,East,90,0.0,3.0,95,0.00,,,0.01,meteohub,2013-12-04 20:33:00,
2013-12-04 14:38:00,35.8,34.5,22.49,SE,135,0.0,3.0,95,0.00,,,0.01,meteohub,2013-12-04 20:38:00,
2013-12-04 14:43:00,35.8,34.5,22.50,SW,225,1.0,2.0,95,0.00,,,0.01,meteohub,2013-12-04 20:43:00,
2013-12-04 14:48:00,35.8,34.5,22.50,South,180,0.0,3.0,95,0.00,,,0.01,meteohub,2013-12-04 20:48:00,
2013-12-04 14:53:00,36.0,34.7,22.51,SE,135,2.0,3.0,95,0.00,,,0.01,meteohub,2013-12-04 20:53:00,
2013-12-04 14:58:00,36.0,34.7,22.52,SE,135,2.0,3.0,95,0.00,,,0.01,meteohub,2013-12-04 20:58:00,
2013-12-04 15:03:00,36.0,34.7,22.51,SW,225,0.0,4.0,95,0.01,,,0.02,meteohub,2013-12-04 21:03:00,
2013-12-04 15:08:00,36.0,34.7,22.52,SE,135,2.0,4.0,95,0.01,,,0.02,meteohub,2013-12-04 21:08:00,
2013-12-04 15:13:00,36.0,34.7,22.52,SE,135,2.0,3.0,95,0.01,,,0.02,meteohub,2013-12-04 21:13:00,
2013-12-04 15:18:00,36.1,34.9,22.51,East,90,1.0,2.0,95,0.01,,,0.02,meteohub,2013-12-04 21:18:00,
2013-12-04 15:23:00,36.3,35.1,22.52,SE,135,0.0,4.0,95,0.01,,,0.02,meteohub,2013-12-04 21:23:00,
2013-12-04 15:28:00,36.3,35.1,22.52,SE,135,1.0,4.0,95,0.01,,,0.02,meteohub,2013-12-04 21:28:00,
2013-12-04 15:33:00,36.5,35.2,22.52,SE,135,2.0,4.0,95,0.01,,,0.02,meteohub,2013-12-04 21:33:00,
2013-12-04 15:38:00,36.5,35.2,22.52,SE,135,2.0,4.0,95,0.01,,,0.02,meteohub,2013-12-04 21:38:00,
2013-12-04 15:43:00,36.5,35.4,22.52,SE,135,1.0,4.0,96,0.01,,,0.02,meteohub,2013-12-04 21:43:00,
2013-12-04 15:48:00,36.5,35.4,22.52,South,180,0.0,4.0,96,0.01,,,0.02,meteohub,2013-12-04 21:48:00,
2013-12-04 15:53:00,36.5,35.4,22.52,SE,135,0.0,3.0,96,0.01,,,0.02,meteohub,2013-12-04 21:53:00,
2013-12-04 15:58:00,36.5,35.4,22.52,SE,135,0.0,1.0,96,0.01,,,0.02,meteohub,2013-12-04 21:58:00,
2013-12-04 16:03:00,36.5,35.4,22.53,SE,135,0.0,0.0,96,0.00,,,0.02,meteohub,2013-12-04 22:03:00,
2013-12-04 16:08:00,36.7,35.6,22.52,SE,135,0.0,0.0,96,0.00,,,0.02,meteohub,2013-12-04 22:08:00,
2013-12-04 16:13:00,36.5,35.4,22.53,SW,225,0.0,0.0,96,0.00,,,0.02,meteohub,2013-12-04 22:13:00,
2013-12-04 16:18:00,36.5,35.4,22.53,South,180,0.0,0.0,96,0.00,,,0.02,meteohub,2013-12-04 22:18:00,
2013-12-04 16:23:00,36.5,35.4,22.53,West,270,0.0,0.0,96,0.00,,,0.02,meteohub,2013-12-04 22:23:00,
2013-12-04 16:28:00,36.5,35.4,22.53,NW,315,0.0,0.0,96,0.00,,,0.02,meteohub,2013-12-04 22:28:00,
2013-12-04 16:33:00,36.5,35.4,22.53,NE,45,0.0,0.0,96,0.00,,,0.02,meteohub,2013-12-04 22:33:00,
2013-12-04 16:38:00,36.7,35.6,22.53,South,180,0.0,0.0,96,0.00,,,0.02,meteohub,2013-12-04 22:38:00,
2013-12-04 16:43:00,36.7,35.6,22.53,South,180,0.0,0.0,96,0.00,,,0.02,meteohub,2013-12-04 22:43:00,
2013-12-04 16:48:00,36.7,35.6,22.54,South,180,0.0,0.0,96,0.00,,,0.02,meteohub,2013-12-04 22:48:00,
2013-12-04 16:53:00,36.7,35.6,22.54,South,180,0.0,0.0,96,0.00,,,0.02,meteohub,2013-12-04 22:53:00,
2013-12-04 16:58:00,36.5,35.4,22.54,South,180,0.0,0.0,96,0.00,,,0.02,meteohub,2013-12-04 22:58:00,
2013-12-04 17:03:00,36.7,35.6,22.55,SW,225,1.0,0.0,96,0.00,,,0.02,meteohub,2013-12-04 23:03:00,
2013-12-04 17:08:00,36.7,35.6,22.55,NE,45,1.0,1.0,96,0.00,,,0.02,meteohub,2013-12-04 23:08:00,
2013-12-04 17:13:00,36.7,35.6,22.55,NE,45,0.0,1.0,96,0.00,,,0.02,meteohub,2013-12-04 23:13:00,
2013-12-04 17:18:00,36.7,35.6,22.55,North,0,1.0,1.0,96,0.00,,,0.02,meteohub,2013-12-04 23:18:00,
2013-12-04 17:23:00,36.7,35.6,22.55,SW,225,0.0,2.0,96,0.00,,,0.02,meteohub,2013-12-04 23:23:00,
2013-12-04 17:28:00,36.7,35.6,22.55,South,180,0.0,2.0,96,0.00,,,0.02,meteohub,2013-12-04 23:28:00,
2013-12-04 17:33:00,36.7,35.6,22.56,West,270,0.0,2.0,96,0.00,,,0.02,meteohub,2013-12-04 23:33:00,
2013-12-04 17:38:00,36.7,35.6,22.55,NW,315,1.0,1.0,96,0.00,,,0.02,meteohub,2013-12-04 23:38:00,
2013-12-04 17:43:00,36.7,35.6,22.56,South,180,0.0,1.0,96,0.00,,,0.02,meteohub,2013-12-04 23:43:00,
2013-12-04 17:48:00,36.7,35.6,22.56,North,0,0.0,2.0,96,0.00,,,0.02,meteohub,2013-12-04 23:48:00,
2013-12-04 17:53:00,36.7,35.6,22.56,South,180,0.0,2.0,96,0.00,,,0.02,meteohub,2013-12-04 23:53:00,
2013-12-04 17:59:00,36.7,35.6,22.56,South,180,0.0,1.0,96,0.00,,,0.02,meteohub,2013-12-04 23:59:00,
2013-12-04 18:04:00,36.7,35.6,22.56,South,180,0.0,0.0,96,0.00,,,0.02,meteohub,2013-12-05 00:04:00,
2013-12-04 18:09:00,37.0,36.0,22.57,South,180,1.0,0.0,96,0.00,,,0.00,meteohub,2013-12-05 00:09:00,
2013-12-04 18:14:00,37.0,36.0,22.56,South,180,2.0,0.0,96,0.00,,,0.00,meteohub,2013-12-05 00:14:00,
2013-12-04 18:19:00,37.6,37.4,22.57,SW,225,2.0,2.0,99,0.00,,,0.00,meteohub,2013-12-05 00:19:00,
2013-12-04 18:24:00,38.7,38.5,22.57,SW,225,4.0,4.0,99,0.00,,,0.00,meteohub,2013-12-05 00:24:00,
2013-12-04 18:29:00,39.7,39.6,22.58,West,270,4.0,4.0,99,0.00,,,0.00,meteohub,2013-12-05 00:29:00,
2013-12-04 18:34:00,41.0,40.8,22.58,West,270,4.0,4.0,99,0.00,,,0.00,meteohub,2013-12-05 00:34:00,
2013-12-04 18:39:00,41.7,41.5,22.57,SW,225,3.0,7.0,99,0.00,,,0.00,meteohub,2013-12-05 00:39:00,
2013-12-04 18:44:00,42.8,42.3,22.57,NW,315,2.0,7.0,98,0.00,,,0.00,meteohub,2013-12-05 00:44:00,
2013-12-04 18:49:00,43.3,42.8,22.57,SW,225,7.0,7.0,98,0.00,,,0.00,meteohub,2013-12-05 00:49:00,
2013-12-04 18:54:00,43.7,43.2,22.57,South,180,7.0,7.0,98,0.00,,,0.00,meteohub,2013-12-05 00:54:00,
2013-12-04 18:59:00,44.2,43.7,22.57,NW,315,7.0,11.0,98,0.00,,,0.00,meteohub,2013-12-05 00:59:00,
2013-12-04 19:04:00,44.8,44.1,22.58,NW,315,6.0,11.0,97,0.00,,,0.00,meteohub,2013-12-05 01:04:00,
2013-12-04 19:09:00,45.1,44.4,22.58,South,180,3.0,11.0,97,0.00,,,0.00,meteohub,2013-12-05 01:09:00,
2013-12-04 19:14:00,45.1,44.4,22.57,North,0,3.0,8.0,97,0.00,,,0.00,meteohub,2013-12-05 01:14:00,
2013-12-04 19:19:00,45.1,44.4,22.57,West,270,4.0,7.0,97,0.00,,,0.00,meteohub,2013-12-05 01:19:00,
2013-12-04 19:24:00,45.1,44.4,22.58,NW,315,6.0,7.0,97,0.00,,,0.00,meteohub,2013-12-05 01:24:00,
2013-12-04 19:29:00,44.6,43.9,22.58,West,270,11.0,11.0,97,0.00,,,0.00,meteohub,2013-12-05 01:29:00,
2013-12-04 19:34:00,44.4,43.9,22.57,West,270,2.0,11.0,98,0.00,,,0.00,meteohub,2013-12-05 01:34:00,
2013-12-04 19:39:00,44.1,43.5,22.58,North,0,4.0,11.0,98,0.00,,,0.00,meteohub,2013-12-05 01:39:00,
2013-12-04 19:44:00,43.9,43.3,22.58,North,0,4.0,11.0,98,0.00,,,0.00,meteohub,2013-12-05 01:44:00,
2013-12-04 19:49:00,44.4,43.9,22.57,North,0,8.0,8.0,98,0.00,,,0.00,meteohub,2013-12-05 01:49:00,
2013-12-04 19:54:00,44.6,43.9,22.58,East,90,7.0,10.0,97,0.00,,,0.00,meteohub,2013-12-05 01:54:00,
2013-12-04 19:59:00,44.2,43.7,22.56,North,0,16.0,16.0,98,0.00,,,0.00,meteohub,2013-12-05 01:59:00,
2013-12-04 20:04:00,44.2,43.7,22.56,North,0,16.0,16.0,98,0.00,,,0.00,meteohub,2013-12-05 02:04:00,
2013-12-04 20:09:00,43.7,43.2,22.56,North,0,5.0,16.0,98,0.00,,,0.00,meteohub,2013-12-05 02:09:00,
2013-12-04 20:14:00,43.3,42.8,22.56,NW,315,11.0,16.0,98,0.00,,,0.00,meteohub,2013-12-05 02:14:00,
2013-12-04 20:19:00,43.2,42.6,22.55,SW,225,7.0,16.0,98,0.00,,,0.00,meteohub,2013-12-05 02:19:00,
2013-12-04 20:24:00,43.0,42.4,22.55,NW,315,8.0,19.0,98,0.00,,,0.00,meteohub,2013-12-05 02:24:00,
2013-12-04 20:29:00,43.0,42.4,22.55,NW,315,8.0,19.0,98,0.00,,,0.00,meteohub,2013-12-05 02:29:00,
2013-12-04 20:34:00,42.8,42.3,22.55,West,270,9.0,19.0,98,0.00,,,0.00,meteohub,2013-12-05 02:34:00,
2013-12-04 20:39:00,42.8,42.3,22.54,North,0,11.0,14.0,98,0.00,,,0.00,meteohub,2013-12-05 02:39:00,
2013-12-04 20:44:00,42.6,42.4,22.53,NW,315,7.0,14.0,99,0.00,,,0.00,meteohub,2013-12-05 02:44:00,
2013-12-04 20:49:00,42.4,42.3,22.54,West,270,11.0,14.0,99,0.00,,,0.00,meteohub,2013-12-05 02:49:00,
2013-12-04 20:54:00,42.4,41.7,22.54,North,0,9.0,13.0,97,0.00,,,0.00,meteohub,2013-12-05 02:54:00,
2013-12-04 20:59:00,42.1,41.0,22.53,NW,315,12.0,13.0,96,0.00,,,0.00,meteohub,2013-12-05 02:59:00,
2013-12-04 21:04:00,41.9,40.6,22.53,North,0,8.0,15.0,95,0.00,,,0.00,meteohub,2013-12-05 03:04:00,
2013-12-04 21:09:00,41.7,39.9,22.53,North,0,13.0,17.0,93,0.00,,,0.00,meteohub,2013-12-05 03:09:00,
2013-12-04 21:15:00,41.5,39.4,22.52,North,0,12.0,24.0,92,0.01,,,0.01,meteohub,2013-12-05 03:15:00,
2013-12-04 21:20:00,41.2,38.8,22.51,North,0,11.0,24.0,91,0.01,,,0.01,meteohub,2013-12-05 03:20:00,
2013-12-04 21:25:00,41.2,38.8,22.51,North,0,9.0,24.0,91,0.01,,,0.01,meteohub,2013-12-05 03:25:00,
2013-12-04 21:30:00,41.2,38.8,22.51,North,0,9.0,15.0,91,0.01,,,0.01,meteohub,2013-12-05 03:30:00,
2013-12-04 21:45:00,39.4,35.8,22.49,NW,315,27.0,-999.0,87,0.01,,,0.01,meteohub,2013-12-05 03:45:00,
2013-12-04 21:50:00,38.8,35.1,22.48,North,0,19.0,27.0,86,0.01,,,0.01,meteohub,2013-12-05 03:50:00,
2013-12-04 21:56:00,38.3,34.0,22.48,NW,315,16.0,27.0,84,0.01,,,0.01,meteohub,2013-12-05 03:56:00,
2013-12-04 22:01:00,37.9,33.8,22.48,North,0,15.0,27.0,85,0.01,,,0.01,meteohub,2013-12-05 04:01:00,
2013-12-04 22:06:00,37.9,33.8,22.48,North,0,15.0,19.0,85,0.01,,,0.01,meteohub,2013-12-05 04:06:00,
2013-12-04 22:11:00,37.0,32.0,22.48,North,0,10.0,17.0,82,0.00,,,0.01,meteohub,2013-12-05 04:11:00,
2013-12-04 22:16:00,36.9,31.8,22.47,NW,315,14.0,17.0,82,0.00,,,0.01,meteohub,2013-12-05 04:16:00,
2013-12-04 22:21:00,36.7,31.5,22.46,NW,315,20.0,21.0,81,0.00,,,0.01,meteohub,2013-12-05 04:21:00,
2013-12-04 22:26:00,36.7,31.1,22.46,NNE,23,17.0,21.0,80,0.00,,,0.01,meteohub,2013-12-05 04:26:00,
2013-12-04 22:31:00,36.3,30.7,22.45,NW,315,18.0,21.0,80,0.00,,,0.01,meteohub,2013-12-05 04:31:00,
2013-12-04 22:36:00,36.1,30.6,22.45,West,270,9.0,21.0,80,0.00,,,0.01,meteohub,2013-12-05 04:36:00,
2013-12-04 22:41:00,36.1,30.6,22.44,NE,45,13.0,19.0,80,0.00,,,0.01,meteohub,2013-12-05 04:41:00,
2013-12-04 22:46:00,35.8,30.2,22.44,WSW,248,18.0,20.0,80,0.00,,,0.01,meteohub,2013-12-05 04:46:00,
2013-12-04 22:51:00,35.4,30.2,22.44,NW,315,11.0,20.0,81,0.00,,,0.01,meteohub,2013-12-05 04:51:00,
2013-12-04 22:56:00,35.1,29.8,22.44,North,0,11.0,19.0,81,0.00,,,0.01,meteohub,2013-12-05 04:56:00,
2013-12-04 23:01:00,34.9,29.7,22.43,NW,315,15.0,18.0,81,0.00,,,0.01,meteohub,2013-12-05 05:01:00,
2013-12-04 23:07:00,34.7,29.5,22.43,North,0,16.0,21.0,81,0.00,,,0.01,meteohub,2013-12-05 05:07:00,
2013-12-04 23:12:00,34.5,28.9,22.42,WNW,293,21.0,21.0,80,0.00,,,0.01,meteohub,2013-12-05 05:12:00,
2013-12-04 23:17:00,34.3,28.8,22.42,NW,315,17.0,24.0,80,0.00,,,0.01,meteohub,2013-12-05 05:17:00,
2013-12-04 23:22:00,34.3,28.6,22.42,NE,45,9.0,24.0,79,0.00,,,0.01,meteohub,2013-12-05 05:22:00,
2013-12-04 23:27:00,34.2,28.0,22.41,West,270,15.0,24.0,78,0.00,,,0.01,meteohub,2013-12-05 05:27:00,
2013-12-04 23:32:00,34.0,27.5,22.41,NE,45,16.0,21.0,77,0.00,,,0.01,meteohub,2013-12-05 05:32:00,
2013-12-04 23:37:00,34.0,27.1,22.41,NE,45,7.0,24.0,76,0.00,,,0.01,meteohub,2013-12-05 05:37:00,
2013-12-04 23:42:00,33.8,26.8,22.41,West,270,8.0,24.0,75,0.00,,,0.01,meteohub,2013-12-05 05:42:00,
2013-12-04 23:47:00,33.6,27.1,22.40,NW,315,11.0,24.0,77,0.00,,,0.01,meteohub,2013-12-05 05:47:00,
2013-12-04 23:52:00,33.3,27.1,22.40,North,0,10.0,11.0,78,0.00,,,0.01,meteohub,2013-12-05 05:52:00,
2013-12-04 23:57:00,33.3,27.7,22.40,North,0,7.0,13.0,80,0.00,,,0.01,meteohub,2013-12-05 05:57:00,